This is the latest recevied weather packets stored in our database for station/object KI6PPU. If no packets are shown the sender has not sent any weather packets the latest 10 day(s).
| Time | Temp. | Humidity | Pressure | Rain* | Wind** | Luminosity | Snow |
|---|---|---|---|---|---|---|---|
| 1778037342 | 13.89° C | 90% | 1018.8 hPa | 0 mm | - | 0 W/m² | - |
| 1778037039 | 13.89° C | 89% | 1018.5 hPa | 0 mm | - | 0 W/m² | - |
| 1778036737 | 13.89° C | 90% | 1018.5 hPa | 0 mm | - | 0 W/m² | - |
| 1778036434 | 13.89° C | 89% | 1018.5 hPa | 0 mm | - | 0 W/m² | - |
| 1778036131 | 14.44° C | 89% | 1018.3 hPa | 0 mm | - | 0 W/m² | - |
| 1778035827 | 13.89° C | 88% | 1018.3 hPa | 0 mm | - | 1 W/m² | - |
| 1778035524 | 14.44° C | 88% | 1018.3 hPa | 0 mm | - | 2 W/m² | - |
| 1778035220 | 14.44° C | 86% | 1018.2 hPa | 0 mm | - | 5 W/m² | - |
| 1778034916 | 14.44° C | 86% | 1018.2 hPa | 0 mm | - | 7 W/m² | - |
| 1778034615 | 15° C | 85% | 1018.2 hPa | 0 mm | - | 11 W/m² | - |
| 1778034312 | 15° C | 84% | 1018.1 hPa | 0 mm | - | 15 W/m² | - |
| 1778034009 | 15° C | 84% | 1018.1 hPa | 0 mm | - | 22 W/m² | - |
| 1778033706 | 15° C | 82% | 1018.1 hPa | 0 mm | - | 28 W/m² | - |
| 1778033404 | 15° C | 83% | 1018 hPa | 0 mm | - | 32 W/m² | - |
| 1778033101 | 15° C | 83% | 1017.7 hPa | 0 mm | - | 39 W/m² | - |
| 1778032798 | 15° C | 83% | 1017.6 hPa | 0 mm | - | 43 W/m² | - |
| 1778032496 | 15° C | 84% | 1017.6 hPa | 0 mm | - | 53 W/m² | - |
| 1778032192 | 15° C | 83% | 1017.9 hPa | 0 mm | - | 64 W/m² | - |
| 1778031889 | 15° C | 83% | 1017.7 hPa | 0 mm | - | 61 W/m² | - |
| 1778031585 | 15° C | 83% | 1018 hPa | 0 mm | - | 71 W/m² | - |
| 1778031284 | 15° C | 83% | 1017.8 hPa | 0 mm | - | 60 W/m² | - |
| 1778030979 | 15° C | 83% | 1018 hPa | 0 mm | - | 59 W/m² | - |
| 1778030676 | 15° C | 83% | 1017.9 hPa | 0 mm | - | 62 W/m² | - |
| 1778030373 | 15° C | 84% | 1018 hPa | 0 mm | - | 62 W/m² | - |
| 1778030071 | 15° C | 85% | 1017.9 hPa | 0 mm | - | 65 W/m² | - |
* Rain latest hour (hover to see other rain measurements)
** Current wind speed in m/s (hover to see current wind gust speed)